Weather History for Dallas Paulding County Region, GA

Change the Weather History Date:

Tuesday, February 11, 2014

  Actual Average (KVPC) Record (KVPC)
Temperature  
Mean Temperature 34 °F 44 °F  
Max Temperature 35 °F 55 °F 68 °F (2009)
Min Temperature 33 °F 33 °F 21 °F (2011)
Degree Days  
Heating Degree Days 31 21  
Month to date heating degree days 243  
Since 1 July heating degree days 2284  
Moisture  
Dew Point 34 °F    
Average Humidity 98    
Maximum Humidity 100    
Minimum Humidity 81    
Precipitation  
Precipitation 0.00 in 0.16 in 2.70 in (1981)
Month to date precipitation 1.78  
Year to date precipitation 6.38  
Snow  
Snow 0.00 in - - ()
Month to date snowfall  
Since 1 July snowfall  
Snow Depth -    
Sea Level Pressure  
Sea Level Pressure 30.18 in    
Wind  
Wind Speed 6 mph (NE)    
Max Wind Speed 15 mph    
Max Gust Speed 21 mph    
Visibility 6 miles    
Events Rain , Snow    
T = Trace of Precipitation, MM = Missing Value Source: NWS Daily Summary

Daily Weather History Graph

Daily Weather History Graph

Search for Another Location

Airport:

Trip Planner

Search our weather history database for the weather conditions in past years. The results will help you decide how hot, cold, wet, or windy it might be!

Date:

Astronomy

Feb. 11, 2014 Rise Set
Actual Time 7:28 AM EST 6:20 PM EST
Civil Twilight 7:02 AM EST 6:45 PM EST
Nautical Twilight 6:33 AM EST 7:15 PM EST
Astronomical Twilight 6:03 AM EST 7:44 PM EST
Moon 3:43 PM EST (2/11) 5:00 AM EST (2/11)
Length of Visible Light 11h 43m
Length of Day
10h 51m
Waxing Gibbous, 90% of the Moon is Illuminated
Feb 11
Waxing Gibbous
Feb 14
Full
Feb 22
Last Quarter
Mar 1
New
Mar 8
First Quarter

Hourly Weather History & Observations

Time (EST) Temp. Windchill Dew Point Humidity Pressure Visibility Wind Dir Wind Speed Gust Speed Precip Events Conditions
12:15 AM 35.6 °F 29.9 °F 30.2 °F 81% 30.13 in 10.0 mi North 6.9 mph - N/A   Light Drizzle
12:35 AM 35.6 °F - 30.2 °F 81% 30.12 in 5.0 mi Calm Calm - N/A Rain Light Rain
12:55 AM 35.6 °F 30.7 °F 32.0 °F 87% 30.13 in 7.0 mi North 5.8 mph - N/A   Overcast
1:15 AM 33.8 °F 27.0 °F 32.0 °F 93% 30.13 in 5.0 mi North 8.1 mph - N/A   Overcast
1:35 AM 33.8 °F 27.0 °F 32.0 °F 93% 30.13 in 7.0 mi North 8.1 mph - N/A   Overcast
1:55 AM 33.8 °F 26.4 °F 32.0 °F 93% 30.14 in 5.0 mi North 9.2 mph - N/A   Overcast
2:15 AM 33.8 °F 27.7 °F 32.0 °F 93% 30.13 in 5.0 mi North 6.9 mph - N/A   Overcast
2:35 AM 33.8 °F 28.6 °F 32.0 °F 93% 30.12 in 5.0 mi North 5.8 mph - N/A   Overcast
2:55 AM 33.8 °F 27.7 °F 32.0 °F 93% 30.11 in 5.0 mi NNE 6.9 mph - N/A   Overcast
3:15 AM 33.8 °F 29.6 °F 32.0 °F 93% 30.11 in 5.0 mi NNE 4.6 mph - N/A   Overcast
3:35 AM 33.8 °F 28.6 °F 33.8 °F 100% 30.11 in 4.0 mi North 5.8 mph - N/A   Overcast
3:55 AM 33.8 °F 28.6 °F 33.8 °F 100% 30.11 in 4.0 mi North 5.8 mph - N/A   Overcast
4:15 AM 33.8 °F 28.6 °F 33.8 °F 100% 30.12 in 3.0 mi North 5.8 mph - N/A   Overcast
4:35 AM 33.8 °F 27.0 °F 33.8 °F 100% 30.13 in 3.0 mi North 8.1 mph - N/A   Overcast
4:55 AM 33.8 °F 28.6 °F 33.8 °F 100% 30.13 in 3.0 mi North 5.8 mph - N/A   Overcast
5:15 AM 33.8 °F 27.0 °F 33.8 °F 100% 30.12 in 4.0 mi NNE 8.1 mph - N/A   Overcast
5:35 AM 33.8 °F 28.6 °F 33.8 °F 100% 30.14 in 4.0 mi NNE 5.8 mph - N/A   Overcast
5:55 AM 33.8 °F 28.6 °F 33.8 °F 100% 30.14 in 3.0 mi North 5.8 mph - N/A Snow Light Snow
6:15 AM 33.8 °F 29.6 °F 33.8 °F 100% 30.13 in 2.5 mi NE 4.6 mph - N/A   Overcast
6:35 AM 33.8 °F 29.6 °F 33.8 °F 100% 30.14 in 2.5 mi NNE 4.6 mph - N/A   Overcast
6:55 AM 33.8 °F 28.6 °F 33.8 °F 100% 30.16 in 2.5 mi NNW 5.8 mph - N/A   Overcast
7:15 AM 33.8 °F 29.6 °F 33.8 °F 100% 30.16 in 2.0 mi North 4.6 mph - N/A Snow Light Snow
7:35 AM 33.8 °F 30.8 °F 33.8 °F 100% 30.17 in 3.0 mi North 3.5 mph - N/A Snow Light Snow
7:55 AM 33.8 °F 29.6 °F 33.8 °F 100% 30.17 in 1.8 mi NNE 4.6 mph - N/A Snow Light Snow
8:15 AM 33.8 °F 29.6 °F 33.8 °F 100% 30.18 in 2.5 mi North 4.6 mph - N/A   Overcast
8:35 AM 33.8 °F 29.6 °F 33.8 °F 100% 30.19 in 1.8 mi North 4.6 mph - N/A   Overcast
8:55 AM 33.8 °F 29.6 °F 33.8 °F 100% 30.19 in 1.8 mi NNE 4.6 mph - N/A   Overcast
9:15 AM 33.8 °F 29.6 °F 33.8 °F 100% 30.20 in 1.8 mi NNE 4.6 mph - N/A   Overcast
9:35 AM 33.8 °F 30.8 °F 33.8 °F 100% 30.21 in 1.8 mi NNE 3.5 mph - N/A   Overcast
9:55 AM 33.8 °F 29.6 °F 33.8 °F 100% 30.21 in 2.5 mi NNE 4.6 mph - N/A   Overcast
10:15 AM 33.8 °F 29.6 °F 33.8 °F 100% 30.21 in 1.2 mi NE 4.6 mph - N/A   Overcast
10:35 AM 33.8 °F 29.6 °F 33.8 °F 100% 30.22 in 1.2 mi NNE 4.6 mph - N/A   Overcast
10:55 AM 33.8 °F 29.6 °F 33.8 °F 100% 30.22 in 1.5 mi NE 4.6 mph - N/A   Overcast
11:15 AM 33.8 °F 30.8 °F 33.8 °F 100% 30.22 in 1.2 mi NE 3.5 mph - N/A   Overcast
11:35 AM 33.8 °F 30.8 °F 33.8 °F 100% 30.23 in 0.8 mi NE 3.5 mph - N/A   Overcast
11:55 AM 33.8 °F 29.6 °F 33.8 °F 100% 30.22 in 0.5 mi NE 4.6 mph - N/A   Overcast
12:15 PM 33.8 °F 30.8 °F 33.8 °F 100% 30.22 in 0.5 mi NE 3.5 mph - N/A   Overcast
12:35 PM 33.8 °F 29.6 °F 33.8 °F 100% 30.22 in 1.5 mi NE 4.6 mph - N/A   Overcast
12:55 PM 35.6 °F 31.7 °F 35.6 °F 100% 30.20 in 1.8 mi NE 4.6 mph - N/A   Overcast
1:15 PM 35.6 °F 32.8 °F 35.6 °F 100% 30.20 in 2.5 mi NE 3.5 mph - N/A   Overcast
1:35 PM 35.6 °F 31.7 °F 35.6 °F 100% 30.19 in 5.0 mi ENE 4.6 mph - N/A   Overcast
1:55 PM 35.6 °F 31.7 °F 35.6 °F 100% 30.18 in 5.0 mi East 4.6 mph - N/A   Overcast
2:15 PM 35.6 °F 29.9 °F 35.6 °F 100% 30.17 in 7.0 mi ENE 6.9 mph - N/A   Overcast
2:35 PM 35.6 °F 28.6 °F 35.6 °F 100% 30.18 in 10.0 mi ENE 9.2 mph - N/A   Overcast
2:55 PM 35.6 °F 29.2 °F 35.6 °F 100% 30.18 in 10.0 mi ENE 8.1 mph - N/A   Overcast
3:15 PM 35.6 °F 28.6 °F 35.6 °F 100% 30.17 in 7.0 mi ENE 9.2 mph - N/A   Drizzle
3:35 PM 35.6 °F 29.2 °F 35.6 °F 100% 30.17 in 7.0 mi ENE 8.1 mph - N/A   Overcast
3:55 PM 35.6 °F 28.6 °F 35.6 °F 100% 30.17 in 7.0 mi ENE 9.2 mph - N/A   Overcast
4:15 PM 35.6 °F 29.9 °F 35.6 °F 100% 30.17 in 10.0 mi ENE 6.9 mph - N/A   Overcast
4:35 PM 35.6 °F 28.6 °F 35.6 °F 100% 30.17 in 10.0 mi ENE 9.2 mph - N/A   Overcast
4:55 PM 35.6 °F 29.2 °F 35.6 °F 100% 30.19 in 10.0 mi NE 8.1 mph - N/A   Overcast
5:15 PM 35.6 °F 29.9 °F 35.6 °F 100% 30.20 in 10.0 mi ENE 6.9 mph - N/A   Overcast
5:35 PM 35.6 °F 29.2 °F 35.6 °F 100% 30.20 in 10.0 mi ENE 8.1 mph - N/A   Overcast
5:55 PM 35.6 °F 30.7 °F 35.6 °F 100% 30.20 in 10.0 mi ENE 5.8 mph - N/A   Overcast
6:15 PM 35.6 °F 29.2 °F 35.6 °F 100% 30.20 in 10.0 mi East 8.1 mph - N/A   Overcast
6:35 PM 35.6 °F 29.2 °F 35.6 °F 100% 30.22 in 10.0 mi ENE 8.1 mph - N/A   Overcast
6:55 PM 35.6 °F 29.9 °F 35.6 °F 100% 30.21 in 10.0 mi East 6.9 mph - N/A   Overcast
7:15 PM 35.6 °F 29.9 °F 35.6 °F 100% 30.20 in 10.0 mi East 6.9 mph - N/A   Overcast
7:35 PM 35.6 °F 28.6 °F 35.6 °F 100% 30.20 in 10.0 mi East 9.2 mph - N/A   Overcast
7:55 PM 35.6 °F 29.9 °F 35.6 °F 100% 30.20 in 10.0 mi East 6.9 mph - N/A   Overcast
8:15 PM 35.6 °F 29.2 °F 35.6 °F 100% 30.20 in 10.0 mi East 8.1 mph - N/A   Overcast
8:35 PM 35.6 °F 29.9 °F 35.6 °F 100% 30.20 in 10.0 mi East 6.9 mph - N/A   Overcast
8:55 PM 35.6 °F 29.2 °F 35.6 °F 100% 30.20 in 10.0 mi East 8.1 mph - N/A   Overcast
9:15 PM 35.6 °F 28.0 °F 33.8 °F 93% 30.21 in 10.0 mi East 10.4 mph - N/A   Overcast
9:35 PM 35.6 °F 28.6 °F 33.8 °F 93% 30.21 in 10.0 mi ESE 9.2 mph - N/A   Overcast
9:55 PM 35.6 °F 28.0 °F 33.8 °F 93% 30.21 in 10.0 mi ESE 10.4 mph - N/A   Overcast
10:15 PM 35.6 °F 27.1 °F 33.8 °F 93% 30.20 in 10.0 mi ESE 12.7 mph 16.1 mph N/A   Overcast
10:35 PM 35.6 °F 26.6 °F 33.8 °F 93% 30.20 in 10.0 mi ESE 13.8 mph 18.4 mph N/A   Overcast
10:55 PM 35.6 °F 27.5 °F 33.8 °F 93% 30.21 in 10.0 mi East 11.5 mph - N/A   Overcast
11:15 PM 35.6 °F 29.2 °F 33.8 °F 93% 30.20 in 10.0 mi East 8.1 mph - N/A   Overcast
11:35 PM 35.6 °F 26.2 °F 33.8 °F 93% 30.19 in 7.0 mi East 15.0 mph 20.7 mph N/A Rain Light Rain
11:55 PM 35.6 °F 28.0 °F 33.8 °F 93% 30.20 in 7.0 mi East 10.4 mph 18.4 mph N/A Rain Light Rain